CFG3AH EDDH-EDDF

Flight info

Callsign CFG3AH
Flight time N/A
Altitude 30000
Route AMLUH2G AMLUH M852 DENIX DCT RIMET/N0433F310 T157 KOKEB/N0385F230 T157 KERAX KERAX5A
Aircraft A320/M-SDE3FGHIJ1LORVWXYZ/SB1

Departure

Time 2026-04-23 16:29
Airport Hamburg Helmut Schmidt Airport (EDDH)

Arrival

Time N/A
Airport Frankfurt Main Airport (EDDF)
Time Latitude Longitude Altitude Speed Heading
2026-04-23 15:59 53.63294 10.00358 46 ft 0 kts 87°
2026-04-23 16:18 53.63294 10.00347 51 ft 2 kts 87°
2026-04-23 16:18 53.63293 10.00313 51 ft 3 kts 87°
2026-04-23 16:19 53.63292 10.00279 51 ft 3 kts 87°
2026-04-23 16:19 53.63291 10.00245 51 ft 3 kts 87°
2026-04-23 16:19 53.63289 10.00212 51 ft 3 kts 90°
2026-04-23 16:19 53.63292 10.00184 49 ft 3 kts 135°
2026-04-23 16:20 53.63306 10.00171 45 ft 2 kts 175°
2026-04-23 16:20 53.63317 10.00169 49 ft 1 kts 176°
2026-04-23 16:20 53.63319 10.00169 48 ft 0 kts 176°
2026-04-23 16:24 53.63306 10.00170 48 ft 6 kts 176°
2026-04-23 16:24 53.63261 10.00175 51 ft 9 kts 176°
2026-04-23 16:24 53.63169 10.00186 49 ft 15 kts 176°
2026-04-23 16:24 53.63071 10.00183 51 ft 14 kts 202°
2026-04-23 16:25 53.62981 10.00088 47 ft 17 kts 211°
2026-04-23 16:25 53.62917 9.99985 50 ft 10 kts 244°
2026-04-23 16:25 53.62897 9.99916 50 ft 3 kts 243°
2026-04-23 16:25 53.62894 9.99905 50 ft 0 kts 243°
2026-04-23 16:26 53.62893 9.99904 50 ft 1 kts 243°
2026-04-23 16:27 53.62877 9.99851 50 ft 9 kts 243°
2026-04-23 16:27 53.62863 9.99752 49 ft 9 kts 295°
2026-04-23 16:27 53.62904 9.99710 50 ft 2 kts 334°
2026-04-23 16:27 53.62904 9.99709 50 ft 0 kts 334°
2026-04-23 16:28 53.62906 9.99708 50 ft 2 kts 334°
2026-04-23 16:29 53.63089 9.99551 50 ft 70 kts 333°
2026-04-23 16:29 53.63753 9.98978 49 ft 140 kts 333°
2026-04-23 16:29 53.64694 9.98206 657 ft 150 kts 329°
2026-04-23 16:29 53.65643 9.97422 1492 ft 157 kts 330°
2026-04-23 16:30 53.66690 9.96514 2063 ft 178 kts 332°
2026-04-23 16:30 53.67869 9.95466 2597 ft 203 kts 332°
2026-04-23 16:30 53.69169 9.94673 3782 ft 200 kts 350°
2026-04-23 16:30 53.70565 9.94622 4805 ft 204 kts 358°
2026-04-23 16:31 53.72004 9.94771 5895 ft 207 kts 11°
2026-04-23 16:31 53.73218 9.96131 6803 ft 227 kts 50°
2026-04-23 16:31 53.73874 9.98596 7824 ft 233 kts 66°
2026-04-23 16:31 53.74229 10.01307 8797 ft 243 kts 83°
2026-04-23 16:32 53.73955 10.04196 9704 ft 260 kts 104°
2026-04-23 16:32 53.73097 10.07070 10245 ft 289 kts 118°
2026-04-23 16:32 53.72020 10.10111 10716 ft 314 kts 117°
2026-04-23 16:32 53.70893 10.13431 11150 ft 338 kts 117°
2026-04-23 16:33 53.69499 10.16770 11781 ft 356 kts 129°
2026-04-23 16:33 53.67661 10.19627 12644 ft 365 kts 142°
2026-04-23 16:33 53.65445 10.21776 13541 ft 371 kts 156°
2026-04-23 16:33 53.62973 10.23108 14394 ft 376 kts 165°
2026-04-23 16:34 53.60433 10.24246 15198 ft 379 kts 165°
2026-04-23 16:34 53.57872 10.25399 16008 ft 383 kts 165°
2026-04-23 16:34 53.55284 10.26578 16800 ft 387 kts 164°
2026-04-23 16:34 53.52685 10.27770 17685 ft 389 kts 164°
2026-04-23 16:35 53.50074 10.28968 18513 ft 391 kts 164°
2026-04-23 16:35 53.47430 10.30177 19149 ft 396 kts 164°
2026-04-23 16:35 53.44762 10.31389 19886 ft 398 kts 164°
2026-04-23 16:35 53.42090 10.32602 20636 ft 399 kts 164°
2026-04-23 16:36 53.39401 10.33823 21314 ft 402 kts 164°
2026-04-23 16:36 53.36681 10.35054 21859 ft 408 kts 164°
2026-04-23 16:36 53.33923 10.36295 22455 ft 413 kts 164°
2026-04-23 16:36 53.31134 10.37542 23118 ft 416 kts 164°
2026-04-23 16:37 53.28329 10.38793 23783 ft 419 kts 163°
2026-04-23 16:37 53.25502 10.40057 24309 ft 422 kts 163°
2026-04-23 16:37 53.22657 10.41332 24827 ft 424 kts 163°
2026-04-23 16:37 53.19800 10.42605 25336 ft 427 kts 163°
2026-04-23 16:38 53.16921 10.43884 25859 ft 429 kts 163°
2026-04-23 16:38 53.14000 10.44998 26344 ft 433 kts 169°
2026-04-23 16:38 53.10986 10.45363 26833 ft 437 kts 179°
2026-04-23 16:38 53.07934 10.45025 27310 ft 441 kts 184°
2026-04-23 16:39 53.04867 10.44592 27780 ft 444 kts 183°
2026-04-23 16:39 53.01779 10.44165 28251 ft 447 kts 183°
2026-04-23 16:39 52.98667 10.43736 28730 ft 450 kts 183°
2026-04-23 16:39 52.95545 10.43307 29181 ft 452 kts 183°
2026-04-23 16:40 52.92400 10.42875 29629 ft 455 kts 183°
2026-04-23 16:40 52.89233 10.42448 30079 ft 458 kts 183°
2026-04-23 16:40 52.86047 10.42022 30468 ft 461 kts 183°
2026-04-23 16:40 52.82846 10.41596 30836 ft 463 kts 183°
2026-04-23 16:41 52.79628 10.41163 31152 ft 465 kts 183°
2026-04-23 16:41 52.76408 10.40724 31243 ft 459 kts 183°
2026-04-23 16:41 52.73282 10.40290 31260 ft 444 kts 183°
2026-04-23 16:41 52.70224 10.39866 31255 ft 439 kts 183°
2026-04-23 16:42 52.64160 10.39047 31263 ft 436 kts 183°
2026-04-23 16:42 52.58110 10.38243 31256 ft 436 kts 183°
2026-04-23 16:43 52.52105 10.37435 31254 ft 435 kts 182°
2026-04-23 16:43 52.46076 10.36629 31249 ft 434 kts 182°
2026-04-23 16:44 52.40055 10.35828 31242 ft 434 kts 182°
2026-04-23 16:44 52.34036 10.35024 31239 ft 434 kts 182°
2026-04-23 16:45 52.28019 10.34227 31253 ft 434 kts 182°
2026-04-23 16:45 52.22006 10.33429 31245 ft 433 kts 182°
2026-04-23 16:46 52.15994 10.32630 31245 ft 433 kts 182°
2026-04-23 16:46 52.09988 10.31840 31249 ft 433 kts 182°
2026-04-23 16:47 52.03977 10.31056 31255 ft 433 kts 182°
2026-04-23 16:47 51.97981 10.30281 31262 ft 432 kts 182°
2026-04-23 16:48 51.93000 10.29626 31263 ft 432 kts 182°
2026-04-23 16:48 51.87001 10.28826 31257 ft 433 kts 182°
2026-04-23 16:49 51.80986 10.28048 31250 ft 434 kts 181°
2026-04-23 16:49 51.74971 10.27273 31254 ft 434 kts 182°
2026-04-23 16:50 51.68961 10.26493 31260 ft 433 kts 182°
2026-04-23 16:50 51.62947 10.25723 31261 ft 433 kts 181°
2026-04-23 16:51 51.56932 10.24951 31267 ft 433 kts 181°
2026-04-23 16:51 51.50924 10.24178 31265 ft 433 kts 181°
2026-04-23 16:52 51.44917 10.23417 31265 ft 433 kts 181°
2026-04-23 16:52 51.38913 10.22658 31264 ft 433 kts 181°
2026-04-23 16:53 51.32908 10.21904 31263 ft 432 kts 180°
2026-04-23 16:53 51.29915 10.21667 30681 ft 430 kts 178°
2026-04-23 16:53 51.26917 10.21581 29811 ft 432 kts 177°
2026-04-23 16:54 51.23913 10.21582 29055 ft 430 kts 176°
2026-04-23 16:54 51.20935 10.21605 28407 ft 426 kts 176°
2026-04-23 16:54 51.17978 10.21613 27767 ft 423 kts 177°
2026-04-23 16:54 51.15049 10.21594 27167 ft 420 kts 178°
2026-04-23 16:55 51.12137 10.21547 26563 ft 417 kts 178°
2026-04-23 16:55 51.09250 10.21486 25970 ft 414 kts 178°
2026-04-23 16:55 51.06382 10.21422 25386 ft 411 kts 178°
2026-04-23 16:55 51.03536 10.21363 24817 ft 408 kts 178°
2026-04-23 16:56 51.00706 10.21308 24262 ft 405 kts 178°
2026-04-23 16:56 50.97896 10.21251 23688 ft 403 kts 179°
2026-04-23 16:56 50.95170 10.20601 23089 ft 403 kts 196°
2026-04-23 16:56 50.92651 10.18727 22541 ft 401 kts 214°
2026-04-23 16:57 50.90612 10.15821 22366 ft 387 kts 227°
2026-04-23 16:57 50.88791 10.12723 21799 ft 386 kts 227°
2026-04-23 16:57 50.86949 10.09609 21169 ft 387 kts 227°
2026-04-23 16:57 50.85113 10.06512 20669 ft 385 kts 227°
2026-04-23 16:58 50.83289 10.03435 20199 ft 382 kts 227°
2026-04-23 16:58 50.81481 10.00377 19751 ft 379 kts 228°
2026-04-23 16:58 50.79689 9.97349 19316 ft 376 kts 228°
2026-04-23 16:58 50.77909 9.94342 18883 ft 373 kts 228°
2026-04-23 16:59 50.76145 9.91368 18441 ft 370 kts 228°
2026-04-23 16:59 50.74391 9.88420 17955 ft 367 kts 228°
2026-04-23 16:59 50.72646 9.85495 17454 ft 365 kts 227°
2026-04-23 16:59 50.70913 9.82591 17006 ft 362 kts 228°
2026-04-23 17:00 50.69197 9.79714 16549 ft 359 kts 228°
2026-04-23 17:00 50.67489 9.76854 16111 ft 357 kts 228°
2026-04-23 17:00 50.65793 9.74018 15676 ft 355 kts 228°
2026-04-23 17:00 50.64109 9.71197 15254 ft 352 kts 229°
2026-04-23 17:01 50.62436 9.68396 14839 ft 350 kts 229°
2026-04-23 17:01 50.60771 9.65616 14441 ft 348 kts 229°
2026-04-23 17:01 50.59114 9.62860 14043 ft 346 kts 229°
2026-04-23 17:01 50.57488 9.60157 13606 ft 343 kts 229°
2026-04-23 17:02 50.55830 9.57401 13155 ft 341 kts 229°
2026-04-23 17:02 50.54204 9.54703 12741 ft 339 kts 229°
2026-04-23 17:02 50.52588 9.52028 12305 ft 336 kts 229°
2026-04-23 17:02 50.51003 9.49406 11894 ft 334 kts 229°
2026-04-23 17:03 50.49413 9.46773 11480 ft 331 kts 229°
2026-04-23 17:03 50.47833 9.44159 11083 ft 328 kts 229°
2026-04-23 17:03 50.46264 9.41567 10686 ft 326 kts 229°
2026-04-23 17:03 50.44730 9.39037 10547 ft 314 kts 229°
2026-04-23 17:04 50.43251 9.36606 10377 ft 304 kts 229°
2026-04-23 17:04 50.41805 9.34226 10043 ft 300 kts 229°
2026-04-23 17:04 50.40375 9.31867 9657 ft 298 kts 229°
2026-04-23 17:04 50.38954 9.29521 9257 ft 296 kts 229°
2026-04-23 17:05 50.37540 9.27189 8846 ft 294 kts 229°
2026-04-23 17:05 50.36133 9.24876 8438 ft 292 kts 229°
2026-04-23 17:05 50.34736 9.22582 8043 ft 290 kts 229°
2026-04-23 17:05 50.33344 9.20306 7814 ft 290 kts 229°
2026-04-23 17:06 50.31953 9.18034 7592 ft 289 kts 229°
2026-04-23 17:06 50.30565 9.15769 7370 ft 288 kts 229°
2026-04-23 17:06 50.29182 9.13512 7153 ft 287 kts 229°
2026-04-23 17:06 50.27803 9.11263 6930 ft 287 kts 228°
2026-04-23 17:07 50.26422 9.09016 6707 ft 286 kts 229°
2026-04-23 17:07 50.25044 9.06779 6477 ft 285 kts 229°
2026-04-23 17:07 50.23674 9.04553 6245 ft 283 kts 229°
2026-04-23 17:07 50.22317 9.02344 6004 ft 281 kts 229°
2026-04-23 17:08 50.20966 9.00145 5778 ft 280 kts 229°
2026-04-23 17:08 50.19626 8.97966 5551 ft 275 kts 229°
2026-04-23 17:08 50.18323 8.95856 5328 ft 265 kts 228°
2026-04-23 17:08 50.17063 8.93823 5101 ft 256 kts 229°
2026-04-23 17:09 50.15855 8.91879 5006 ft 244 kts 229°
2026-04-23 17:09 50.14686 8.89989 5013 ft 241 kts 229°